South Arkansas Regional At Goodwin Field
KELD : now visible

Airfield :











YOU CAN JOIN US ON...

 
LOGIN :

Register | Disclaimer

   EN    FR    IT 

 









Legend :    VFR   Marginal VFR   IFR   Intensive IFR   Very Intensive IFR
Visi :
Ceiling :
>= 8 km
>= 3000ft
5 to 8 km
1000 to 3000 ft
1500m to 5 km
500 to 1000 ft
800 to 1500m
200 to 500 ft
< 800m
< 200 ft
Symbols :   Thunderstorms  Fog  Heavy snow  Heavy precipitations  Wind > 20 kt







- Airport Elevation : 277 ft
- IATA code : ELD


KELD - South Arkansas Regional At Goodwin Field

CURRENT METAR :
  • 191353Z AUTO 21008KT 10SM FEW013 28/25 A3005 RMK AO2 SLP172 T02780250

EXPIRED METARs :
  • 191307Z AUTO 19006KT 10SM FEW008 26/25 A3004 RMK AO2 T02610250
  • 191253Z AUTO 19004KT 10SM CLR 26/25 A3004 RMK AO2 SLP167 T02560250
  • 191153Z AUTO 17003KT 8SM CLR 24/24 A3002 RMK AO2 SLP162 T02390239 10261 20239 53013

TAF KELD
Valid from the 19 at 12:00 until the 20 at 12:00 UTC


191141Z 1912/2012 VRB03KT P6SM SKC
FM191500 20008KT P6SM SCT035
FM200000 18003KT P6SM SKC
KZFW FIR / North America



MET'MAP, your aeronautical weather chart ! - Copyright ORBIFLY December 2007 - Disclaimer

ORBIFLY MET'MAP TEAM :

Programming & Development : Alexandra Zaïnal
Concept & Development : Baudouin d'Aumeries
Co-Development & Prog : Marc-Olivier Méhu
Technical & hardware support : Manuel Goepfert

Contact : metmap@orbifly.com




SOURCES & CREDITS :

   NOAA       Earth
Advisory